GEFSNGP_con_probscp_156.txt.gz
Probability
0 0 0 0 0 0 0 0 0 1 4 7 10 14 15 13 11 8 7 9 10 9 7 8 9 9 10 10 10 10 10 12 13 11 10 11 11 9 6 4 4 3 2 0
0 0 0 0 0 0 0 0 0 1 5 8 11 15 16 13 10 8 6 7 8 8 7 8 9 11 11 11 11 11 11 13 12 10 9 10 10 9 7 5 5 5 3 2
0 0 0 0 0 0 0 1 1 3 6 8 11 15 17 14 10 7 6 5 6 6 6 8 10 12 12 12 12 12 13 13 12 10 9 9 9 8 7 7 9 9 7 6
0 0 0 0 1 1 1 2 3 4 6 8 11 14 16 14 10 7 6 5 3 3 3 5 8 10 11 11 11 12 13 12 10 9 8 8 8 7 8 12 15 15 13 11
0 0 0 0 1 2 2 2 3 5 7 10 13 14 14 14 11 7 6 5 3 2 1 3 7 10 10 11 12 12 12 11 8 7 8 8 8 10 13 16 19 17 15 13
0 0 0 0 1 1 1 2 4 6 10 14 15 14 14 14 11 8 5 5 4 3 2 4 7 11 13 14 15 14 14 12 9 7 8 9 10 13 15 16 16 14 11 9
0 0 0 1 2 3 5 7 8 9 12 14 14 15 16 13 9 7 6 5 4 3 3 4 7 12 15 17 17 16 16 13 10 8 7 8 11 12 13 12 10 8 7 5
2 3 3 4 6 10 13 16 15 14 12 12 13 15 14 9 6 6 5 4 3 3 3 4 7 11 13 15 16 16 16 14 12 8 6 6 9 10 8 7 6 5 4 4
9 9 9 8 11 16 20 21 20 17 12 10 11 11 8 4 2 3 3 3 3 3 3 4 7 10 10 10 11 13 14 13 12 9 6 5 6 6 5 4 5 4 3 3
15 14 12 12 13 16 19 20 20 17 11 8 9 8 5 2 1 1 1 2 2 2 2 3 5 7 8 7 7 9 10 10 9 8 6 5 4 4 3 3 3 3 2 2
17 15 13 13 13 14 15 17 17 14 9 6 6 7 6 4 1 0 0 1 1 1 1 1 2 4 5 5 6 8 8 7 7 6 6 4 3 2 1 1 1 1 1 1
16 14 13 13 13 12 12 12 12 11 8 5 5 7 6 4 1 0 0 0 0 0 1 1 1 2 5 6 7 8 7 7 6 6 5 3 1 1 0 0 0 0 0 0
12 12 12 12 11 10 9 8 8 7 6 5 5 5 4 2 1 0 0 0 0 0 1 1 1 2 4 7 8 7 7 6 6 5 3 1 0 0 0 0 0 0 0 0
7 8 7 7 7 6 5 4 4 5 6 6 5 4 2 1 0 0 0 0 0 0 0 0 0 1 2 4 5 6 6 6 6 3 1 0 0 0 0 0 0 0 0 0
5 5 4 3 2 2 1 1 2 4 5 5 4 2 1 0 0 0 0 0 0 0 0 0 0 0 1 1 2 4 5 5 4 2 0 0 0 0 0 0 0 0 0 0
3 2 1 1 0 0 0 0 1 2 3 3 1 1 0 0 0 0 0 0 0 0 0 0 0 0 0 0 0 1 2 2 1 0 0 0 0 0 0 0 0 0 0 0
1 1 0 0 0 0 0 0 0 1 1 1 0 0 0 0 0 0 0 0 0 0 0 0 0 0 0 0 0 0 0 0 0 0 0 0 0 0 0 0 0 0 0 0
0 0 0 0 0 0 0 0 0 0 0 0 0 0 0 0 0 0 0 0 0 0 0 0 0 0 0 0 0 0 0 0 0 0 0 0 0 0 0 0 0 0 0 0
0 0 0 0 0 0 0 0 0 0 0 0 0 0 0 0 0 0 0 0 0 0 0 0 0 0 0 0 0 0 0 0 0 0 0 0 0 0 0 0 0 0 0 0
0 0 0 0 0 0 0 0 0 0 0 0 0 0 0 0 0 0 0 0 0 0 0 0 0 0 0 0 0 0 0 0 0 0 0 0 0 0 0 0 0 0 0 0
0 0 0 0 0 0 0 0 0 0 0 0 0 0 0 0 0 0 0 0 0 0 0 0 0 0 0 0 0 0 0 0 0 0 0 0 0 0 0 0 0 0 0 0
0 0 0 0 0 0 0 0 0 0 0 0 0 0 0 0 0 0 0 0 0 0 0 0 0 0 0 0 0 0 0 0 0 0 0 0 0 0 0 0 0 0 0 0
0 0 0 0 0 0 0 0 0 0 0 0 0 0 0 0 0 0 0 0 0 0 0 0 0 0 0 0 0 0 0 0 0 0 0 0 0 0 0 0 0 0 0 0
0 0 0 0 0 0 0 0 0 0 0 0 0 0 0 0 0 0 0 0 0 0 0 0 0 0 0 0 0 0 0 0 0 0 0 0 0 0 0 0 0 0 0 0
0 0 0 0 0 0 0 0 0 0 0 0 0 0 0 0 0 0 0 0 0 0 0 0 0 0 0 0 0 0 0 0 0 0 0 0 0 0 0 0 0 0 0 0
0 0 0 0 0 0 0 0 0 0 0 0 0 0 0 0 0 0 0 0 0 0 0 0 0 0 0 0 0 0 0 0 0 0 0 0 0 0 0 0 0 0 0 0
0 0 0 0 0 0 0 0 0 0 0 0 0 0 0 0 0 0 0 0 0 0 0 0 0 0 0 0 0 0 0 0 0 0 0 0 0 0 0 0 0 0 0 0

GEFSNGP_con_probscp_162.txt.gz
Probability
0 0 0 0 0 0 0 0 1 3 9 14 18 21 24 26 30 36 35 32 32 35 35 32 29 28 26 25 27 31 31 29 28 26 23 22 21 22 22 22 23 25 27 26
0 0 0 0 0 0 0 0 1 5 14 21 25 28 31 33 36 39 38 34 32 34 35 32 27 25 24 25 27 29 27 25 23 22 22 21 21 21 21 21 22 24 25 25
0 0 0 0 0 0 1 1 2 8 19 29 33 37 42 45 45 42 39 35 33 34 34 30 25 23 22 23 24 24 21 19 17 18 20 21 20 18 18 19 20 22 22 22
0 0 0 0 0 1 2 4 7 13 23 32 37 40 45 50 47 42 39 38 36 34 31 28 27 24 22 21 21 18 16 16 17 18 20 22 20 17 16 19 20 20 19 17
1 0 0 0 1 2 4 8 13 20 28 34 35 36 41 46 45 41 38 38 37 34 31 30 29 27 23 21 19 17 17 18 19 19 20 22 22 19 19 21 20 17 14 14
2 1 1 2 2 3 7 15 22 29 36 37 34 37 45 47 43 38 34 34 34 32 30 29 28 28 25 21 20 21 21 21 21 20 20 21 22 22 21 20 17 13 11 11
2 2 3 5 5 9 21 32 37 42 46 45 45 49 52 47 39 32 28 26 27 27 25 24 25 27 27 24 24 25 23 21 21 21 19 19 21 22 21 18 13 10 8 8
7 10 16 19 19 27 42 49 49 51 53 55 56 54 48 39 32 27 22 20 22 23 22 19 19 24 26 25 25 25 22 20 20 20 19 19 20 20 19 16 12 8 6 5
24 29 36 38 38 44 49 50 50 50 51 52 50 44 36 29 26 23 19 19 20 21 20 17 15 18 20 20 20 20 19 18 18 18 17 17 17 16 14 13 11 7 4 3
40 42 43 43 43 43 42 43 44 43 42 40 36 31 26 23 21 18 17 19 21 20 17 15 14 13 13 14 14 13 14 14 14 14 13 12 10 9 8 8 8 6 2 1
39 38 35 33 34 35 36 38 38 36 32 28 25 23 21 19 16 15 13 14 15 14 12 10 9 8 8 10 9 9 11 12 11 10 8 6 5 4 4 4 4 3 2 1
33 30 27 26 27 30 32 32 31 29 25 21 19 18 17 16 14 12 10 8 8 8 6 3 3 3 5 5 5 7 9 10 9 7 5 4 3 3 2 2 1 1 1 0
27 25 24 22 22 25 25 24 24 22 20 18 17 16 14 13 12 10 7 5 4 4 3 1 0 0 2 2 2 4 6 8 7 5 4 3 3 2 1 0 0 0 0 0
19 19 20 20 19 19 19 19 19 18 16 15 16 15 12 11 10 7 4 3 3 3 2 1 0 0 0 1 1 2 4 4 4 3 3 3 3 2 1 0 0 0 0 0
12 14 17 18 16 15 15 15 15 15 14 13 14 14 12 10 8 6 3 2 2 1 1 0 0 0 0 0 2 3 2 2 2 3 3 3 3 2 1 0 0 0 0 0
9 12 15 15 13 12 11 11 11 12 12 12 12 11 10 8 6 3 2 2 2 1 0 0 0 0 0 0 1 1 1 0 1 2 3 3 3 2 1 0 0 0 0 0
7 8 10 10 8 7 7 7 8 9 10 10 9 7 5 4 2 1 0 1 1 0 0 0 0 0 0 0 0 0 0 0 0 1 2 2 1 1 0 0 0 0 0 0
4 4 4 4 4 4 4 5 7 8 8 7 5 3 1 1 0 0 0 0 0 0 0 0 0 0 0 0 0 0 0 0 0 0 1 1 0 0 0 0 0 0 0 0
2 2 2 2 2 3 4 4 5 5 6 5 3 1 0 0 0 0 0 0 0 0 0 0 0 0 0 0 0 0 0 0 0 0 0 0 0 0 0 0 0 0 0 0
2 2 1 1 1 3 3 3 2 2 2 2 2 1 0 0 0 0 0 0 0 0 0 0 0 0 0 0 0 0 0 0 0 0 0 0 0 0 0 0 0 0 0 0
2 2 1 1 1 3 3 1 0 0 0 1 1 1 0 0 0 0 0 0 0 0 0 0 0 0 0 0 0 0 0 0 0 0 0 0 0 0 0 0 0 0 0 0
3 3 3 2 2 2 2 1 0 0 0 0 0 0 0 0 0 0 0 0 0 0 0 0 0 0 0 0 0 0 0 0 0 0 0 0 0 0 0 0 0 0 0 0
4 4 4 3 1 1 1 0 0 0 0 0 0 0 0 0 0 0 0 0 0 0 0 0 0 0 0 0 0 0 0 0 0 0 0 0 0 0 0 0 0 0 0 0
3 4 4 3 1 0 0 0 0 0 0 0 0 0 1 1 0 0 0 0 0 0 0 0 0 0 0 0 0 0 0 0 0 0 0 0 0 0 0 0 0 0 0 0
2 3 3 3 1 0 0 0 0 0 0 0 0 0 1 1 0 0 0 0 0 0 0 0 0 0 0 0 0 0 0 0 0 0 0 0 0 0 0 0 0 0 0 0
2 3 3 3 2 1 0 0 0 0 0 0 0 0 1 1 0 0 0 0 0 0 0 0 0 0 0 0 0 0 0 0 0 0 0 0 0 0 0 0 0 0 0 0
3 3 3 3 3 2 1 0 0 0 0 0 0 0 0 0 0 0 0 0 0 0 0 0 0 0 0 0 0 0 0 0 0 0 0 0 0 0 0 0 0 0 0 0

GEFSNGP_con_probscp_168.txt.gz
Probability
0 0 0 0 0 0 0 0 1 2 2 2 3 3 3 6 9 11 11 12 12 11 11 12 11 8 5 3 4 6 6 7 8 11 12 11 10 8 8 7 7 6 6 6
0 0 0 0 0 0 0 1 3 5 3 3 5 6 7 10 13 13 13 14 14 12 11 11 10 7 5 4 4 6 7 6 6 7 10 11 10 9 9 8 7 6 6 6
0 0 0 0 0 0 0 2 7 9 7 6 9 13 14 15 15 14 14 15 14 12 10 10 9 7 6 5 5 6 7 6 5 5 8 9 10 10 9 8 6 6 5 5
0 0 0 0 0 1 2 5 11 14 13 13 16 18 18 17 15 14 15 15 14 12 10 8 7 7 6 5 5 6 7 7 6 5 6 7 9 9 8 7 5 4 4 3
0 0 0 0 0 2 6 11 17 19 19 18 20 21 17 14 14 15 16 16 15 12 9 6 6 6 6 5 5 6 7 7 6 5 4 5 6 6 5 4 4 3 3 2
0 0 0 0 1 3 9 15 18 20 21 20 21 20 14 12 14 16 17 17 15 11 7 4 4 5 6 6 6 6 6 6 5 4 3 3 3 2 2 2 2 2 2 2
0 0 1 3 6 6 8 13 16 17 19 20 19 17 13 13 15 17 16 14 10 8 6 3 3 4 6 6 6 6 5 5 4 4 3 2 1 0 1 1 1 1 0 1
0 0 3 7 10 8 8 12 15 16 18 19 17 14 13 15 16 15 12 9 5 4 4 2 1 4 5 5 5 5 4 4 3 3 3 1 0 0 0 0 0 0 0 0
3 5 8 11 11 10 12 14 15 16 18 17 14 11 12 13 12 9 6 4 2 1 1 1 1 2 3 2 2 2 2 1 1 1 1 1 0 0 0 0 0 0 0 0
8 13 17 18 17 15 16 17 14 12 13 13 11 9 9 9 6 3 2 1 1 0 0 0 0 0 1 0 0 0 0 0 0 0 1 1 1 1 1 0 0 0 0 0
9 13 17 19 20 20 20 17 12 9 9 9 8 7 7 5 3 1 2 1 0 0 0 0 0 0 0 0 0 0 0 0 0 0 0 1 2 2 1 0 0 0 0 0
4 6 9 11 14 17 18 15 11 7 6 6 6 6 5 4 3 3 2 2 1 0 0 0 0 0 0 0 0 0 0 1 0 0 0 0 1 1 1 0 0 0 0 0
1 3 5 7 9 11 11 10 8 5 4 4 6 6 5 4 4 3 2 2 1 0 0 0 0 0 0 0 0 0 0 0 0 0 0 0 0 0 0 0 0 0 0 0
1 3 5 7 8 7 6 5 4 3 3 3 4 5 5 4 4 2 1 1 1 0 0 0 0 0 0 0 0 0 0 0 0 0 0 0 0 0 0 0 0 0 0 0
2 3 5 5 6 5 4 3 3 2 1 1 1 2 3 3 2 1 0 0 0 0 0 0 0 0 0 0 0 0 0 0 0 0 0 0 0 0 0 0 0 0 0 0
2 3 3 3 5 4 3 3 2 1 0 0 0 0 1 1 1 0 0 0 0 0 0 0 0 0 0 0 0 0 0 0 0 0 0 0 0 0 0 0 0 0 0 0
1 1 1 2 3 3 3 2 1 0 0 0 0 0 0 0 0 0 0 0 0 0 0 0 0 0 0 0 0 0 0 0 0 0 0 0 0 0 0 0 0 0 0 0
0 0 0 1 1 2 2 1 0 0 0 0 0 0 0 0 0 0 0 0 0 0 0 0 0 0 0 0 0 0 0 0 0 0 0 0 0 0 0 0 0 0 0 0
0 0 0 0 0 1 1 0 0 0 0 0 0 0 0 0 0 0 0 0 0 0 0 0 0 0 0 0 0 0 0 0 0 0 0 0 0 0 0 0 0 0 0 0
0 0 0 0 0 0 0 0 0 0 0 0 0 0 0 0 0 0 0 0 0 0 0 0 0 0 0 0 0 0 0 0 0 0 0 0 0 0 0 0 0 0 0 0
0 0 0 0 0 0 0 0 0 0 0 0 0 0 0 0 0 0 0 0 0 0 0 0 0 0 0 0 0 0 0 0 0 0 0 0 0 0 0 0 0 0 0 0
0 0 0 0 0 0 0 0 0 0 0 0 0 0 0 0 0 0 0 0 0 0 0 0 0 0 0 0 0 0 0 0 0 0 0 0 0 0 0 0 0 0 0 0
0 0 0 0 0 0 0 0 0 0 0 0 0 0 0 0 0 0 0 0 0 0 0 0 0 0 0 0 0 0 0 0 0 0 0 0 0 0 0 0 0 0 0 0
0 0 0 0 0 0 0 0 0 0 0 0 0 0 0 0 0 0 0 0 0 0 0 0 0 0 0 0 0 0 0 0 0 0 0 0 0 0 0 0 0 0 0 0
0 0 0 0 0 0 0 0 0 0 0 0 0 0 0 0 0 0 0 0 0 0 0 0 0 0 0 0 0 0 0 0 0 0 0 0 0 0 0 0 0 0 0 0
0 0 0 0 0 0 0 0 0 0 0 0 0 0 0 0 0 0 0 0 0 0 0 0 0 0 0 0 0 0 0 0 0 0 0 0 0 0 0 0 0 0 0 0
0 0 0 0 0 0 0 0 0 0 0 0 0 0 0 0 0 0 0 0 0 0 0 0 0 0 0 0 0 0 0 0 0 0 0 0 0 0 0 0 0 0 0 0

GEFSNGP_con_probscp_174.txt.gz
Probability
0 0 0 0 0 0 0 0 0 0 0 1 3 5 6 6 4 2 1 0 1 3 5 7 8 8 7 6 5 4 3 3 2 1 0 1 3 5 6 7 7 6 5 5
0 0 0 0 0 0 0 0 0 0 0 1 3 5 6 8 7 5 3 2 2 4 6 7 7 7 7 6 5 4 3 3 3 2 1 0 2 4 6 8 7 6 6 5
0 0 0 0 0 0 0 0 0 0 1 2 3 5 7 9 9 7 6 5 5 5 6 6 5 5 5 5 4 4 3 3 3 3 1 0 0 2 5 7 6 6 5 5
0 0 0 0 0 0 0 0 0 0 1 3 4 6 8 8 7 7 6 6 5 4 4 3 2 2 2 2 2 1 1 1 2 3 2 1 1 2 3 4 4 4 4 4
0 0 0 0 0 0 0 1 1 1 2 4 6 7 7 6 5 4 4 4 4 3 1 1 0 1 1 0 0 0 0 1 2 3 4 3 2 2 2 2 2 2 2 2
0 0 0 0 0 0 0 0 1 2 3 4 5 5 4 4 4 3 3 3 2 1 0 0 1 2 2 1 1 1 1 2 4 4 5 4 2 1 1 0 1 1 1 1
0 0 0 1 1 1 0 0 0 1 2 2 2 3 3 4 5 5 4 3 1 0 0 1 2 3 3 3 2 2 3 4 5 5 4 3 1 0 0 0 0 0 0 0
0 0 0 1 1 1 0 0 0 0 0 0 0 1 2 5 6 6 5 3 2 2 1 1 2 3 3 3 3 3 3 4 3 3 2 1 0 0 0 0 0 0 0 0
3 3 3 2 1 1 1 1 2 1 1 0 0 0 1 3 5 6 5 4 3 3 2 1 1 1 2 2 3 3 3 2 1 1 0 0 0 0 0 0 0 0 0 0
9 9 8 5 3 3 3 3 3 3 2 1 0 1 2 2 3 3 3 3 2 2 2 1 0 0 1 1 1 2 2 1 0 0 0 0 0 0 0 0 0 0 0 0
10 10 9 5 3 3 4 3 3 3 2 1 0 1 2 3 2 2 1 1 1 1 1 0 0 0 0 0 0 1 1 0 0 0 0 0 0 0 0 0 0 0 0 0
5 6 5 3 1 1 2 2 1 1 1 0 0 1 2 3 3 2 1 0 0 0 0 0 0 0 0 0 0 0 0 0 0 0 0 0 0 0 0 0 0 0 0 0
1 2 3 2 1 0 0 0 0 0 0 0 0 1 3 3 3 2 1 0 0 0 0 0 0 0 0 0 0 0 0 0 0 0 0 0 0 0 0 0 0 0 0 0
0 1 2 2 1 0 0 0 0 0 0 0 1 2 3 3 3 1 0 0 0 0 0 0 0 0 0 0 0 0 0 0 0 0 0 0 0 0 0 0 0 0 0 0
0 0 1 1 1 1 0 0 0 0 0 0 1 2 3 3 2 1 0 0 0 0 0 0 0 0 0 0 0 0 0 0 0 0 0 0 0 0 0 0 0 0 0 0
0 0 0 1 1 1 0 0 0 0 0 0 0 1 1 2 1 0 0 0 0 0 0 0 0 0 0 0 0 0 0 0 0 0 0 0 0 0 0 0 0 0 0 0
0 0 0 0 0 0 0 0 0 0 0 0 0 0 0 0 0 0 0 0 0 0 0 0 0 0 0 0 0 0 0 0 0 0 0 0 0 0 0 0 0 0 0 0
0 0 0 0 0 0 0 0 0 0 0 0 0 0 0 0 0 0 0 0 0 0 0 0 0 0 0 0 0 0 0 0 0 0 0 0 0 0 0 0 0 0 0 0
0 0 0 0 0 0 0 0 0 0 0 0 0 0 0 0 0 0 0 0 0 0 0 0 0 0 0 0 0 0 0 0 0 0 0 0 0 0 0 0 0 0 0 0
0 0 0 0 0 0 0 0 0 0 0 0 0 0 0 0 0 0 0 0 0 0 0 0 0 0 0 0 0 0 0 0 0 0 0 0 0 0 0 0 0 0 0 0
0 0 0 0 0 0 0 0 0 0 0 0 0 0 0 0 0 0 0 0 0 0 0 0 0 0 0 0 0 0 0 0 0 0 0 0 0 0 0 0 0 0 0 0
0 0 0 0 0 0 0 0 0 0 0 0 0 0 0 0 0 0 0 0 0 0 0 0 0 0 0 0 0 0 0 0 0 0 0 0 0 0 0 0 0 0 0 0
0 0 0 0 0 0 0 0 0 0 0 0 0 0 0 0 0 0 0 0 0 0 0 0 0 0 0 0 0 0 0 0 0 0 0 0 0 0 0 0 0 0 0 0
0 0 0 0 0 0 0 0 0 0 0 0 0 0 0 0 0 0 0 0 0 0 0 0 0 0 0 0 0 0 0 0 0 0 0 0 0 0 0 0 0 0 0 0
0 0 0 0 0 0 0 0 0 0 0 0 0 0 0 0 0 0 0 0 0 0 0 0 0 0 0 0 0 0 0 0 0 0 0 0 0 0 0 0 0 0 0 0
0 0 0 0 0 0 0 0 0 0 0 0 0 0 0 0 0 0 0 0 0 0 0 0 0 0 0 0 0 0 0 0 0 0 0 0 0 0 0 0 0 0 0 0
0 0 0 0 0 0 0 0 0 0 0 0 0 0 0 0 0 0 0 0 0 0 0 0 0 0 0 0 0 0 0 0 0 0 0 0 0 0 0 0 0 0 0 0